881  
ASUS46 KPDT 270725  
RWRPDT  
PENDLETON REGIONAL WEATHER ROUNDUP  
NATIONAL WEATHER SERVICE PENDLETON OREGON  
1200 AM PDT WED MAY 27 2015  
 
NOTE: FAIR INDICATES FEW OR NO CLOUDS BELOW 12,000 FEET WITH NO  
SIGNIFICANT WEATHER AND/OR S TO VISIBILITY
.  
 
# INDICATES UNOFFICIAL STATION AND DATA  
 
WAZ520-270810-  
EAST SLOPES OF WASHINGTON CASCADES  
 
CITY SKY/WX TMP DP RH WIND PRES REMARKS
 
#BULLFROG 2SW N/A 48 43 83 S2 27.63S  
#BUMPING DAM N/A 48 N/A N/A CALM N/A  
#CLE ELUM HS N/A 53 46 77 CALM 29.96S  
#CLE ELUM LAKE N/A 49 46 89 CALM 29.95R  
#CLIFFDEL 2NW N/A 49 43 80 CALM N/A  
#GLENWOOD N/A 47 46 96 CALM 29.96S  
#NELSON N/A 54 47 77 CALM 29.97F  
#NELSON 3SW N/A 47 43 86 CALM 30.16R  
#NILE N/A 50 45 83 CALM 29.26S  
#RONALD 2NW N/A 51 4 14 N1 29.90R  
#SNOWDEN N/A 47 38 71 CALM N/A  
#TEANAWAY 4NE N/A 50 48 93 SW3 N/A  
#TROUT LAKE 1NE N/A 50 48 93 CALM 29.96S  

 
 
WAZ521-270810-  
SIMCOE HIGHLANDS  
 
CITY SKY/WX TMP DP RH WIND PRES REMARKS
 
#BICKLETON HS N/A 56 44 64 N5 N/A  
#CENTERVILLE 4W N/A 55 48 77 NW12 29.73R  
#CENTERVILLE 1SWN/A 55 45 69 CALM 29.91S  
#GOLDENDALE N/A 55 47 74 S2 N/A  
#GOODNOE HILLS N/A 58 49 72 NW7 N/A  
#LYLE 6NE N/A 56 49 77 S2 29.93R  

 
 
WAZ026-270810-  
KITTITAS VALLEY  
 
CITY SKY/WX TMP DP RH WIND PRES REMARKS
 
ELLENSBURG AP PTCLDY 56 47 72 NW10 29.98S  
YTC-OPS AREA N/A 53 44 71 W23G28 29.97S  
#ELLENSBURG CWU N/A 56 47 72 NW5 29.90R  
#ELLENSBURG 3NE N/A 55 48 77 N5 29.98S  
#ELLENSBURG 1E N/A 56 44 64 CALM N/A  
#KITTITAS 4N N/A 52 46 80 NW1 28.29S  
#KITTITAS 3S N/A 53 48 83 CALM 29.94R  
#THORP 6N N/A 53 47 80 N9 29.97R  

 
 
WAZ027-270810-  
YAKIMA VALLEY  
 
CITY SKY/WX TMP DP RH WIND PRES REMARKS
 
SUNNYSIDE AP MOCLDY 55 49 80 CALM 29.95R  
YAKIMA AIRPORT MOCLDY 64 45 50 NW7 29.97R  
#DONALD 2NE N/A 60 44 55 CALM 28.81S  
#GRANDVIEW N/A 58 51 77 CALM 29.94R  
#MABTON N/A 61 53 75 S1 29.94S  
#NACHES 2SW N/A 58 46 64 W10 29.98R  
#SELAH 8E N/A 54 47 77 NE5 N/A  
#TERRACE HTS N/A 58 49 72 CALM 29.90R  
#TOPPENISH N/A 61 51 70 CALM 29.85R  
#WAPATO 4NE N/A 60 44 55 CALM 28.81S  
#WEST VALLEY N/A 60 46 60 N3 29.91S  
#W YAKIMA N/A 60 46 60 N2 29.93R  
#WHITE SWAN 5E N/A 57 53 86 CALM 29.94R  
#WILEY CITY 3W N/A 53 47 80 CALM 29.94R  

 
 
WAZ028-270810-  
LOWER COLUMBIA BASIN...WASHINGTON  
 
CITY SKY/WX TMP DP RH WIND PRES REMARKS
 
HANFORD MOCLDY 63 50 62 W7 29.93S  
PASCO PTCLDY 57 55 93 N3 29.94S  
RICHLAND AWOS PTCLDY 59 57 93 CALM 29.94S  
#BASIN CITY 5SW N/A 56 54 93 CALM 29.94S  
#BENTON CITY N/A 56 52 86 NW1 29.84S  
#CONNELL 5N N/A 54 50 86 E1 29.92S  
#CONNELL 5NW N/A 54 51 90 CALM 29.89S  
#ELTOPIA N/A 57 53 86 CALM 29.89S  
#ELTOPIA 6NW N/A 58 54 87 CALM 28.92S  
#KAHLOTUS N/A 55 51 86 E1 29.93R  
#KENNEWICK N/A 48 43 83 S2 27.63S  
#KENNEWICK 3S N/A 58 53 83 CALM 29.92S  
#PATERSON N/A 61 53 75 N1 29.91S  
#PROSSER N/A 62 49 62 E1 29.92S  
#SAGEMOOR 2W N/A 59 55 87 CALM 29.77S  
#TOUCHET 2S N/A 56 52 86 CALM 29.90R  
#WEST PASCO N/A 60 53 78 CALM 29.91S  

 
 
WAZ029-270810-  
FOOTHILLS OF THE BLUES...WASHINGTON  
 
CITY SKY/WX TMP DP RH WIND PRES REMARKS
 
WALLA WALLA AP PTCLDY 56 49 77 E5 29.94R  
#DAYTON SCHOOL N/A 51 43 74 N1 29.97S  
#LOWDEN 2SE N/A 57 53 86 CALM 29.90R  
#PLEASANT VIEW 1N/A 56 51 83 CALM 29.96R  
#PRESCOTT N/A 51 49 93 CALM 29.91R  
#SUDBURY N/A 54 N/A N/A CALM N/A  
#WHITMAN COLLEGEN/A 59 51 75 E3 29.96R  
#WAITSBURG 8N N/A 50 36 58 N2 29.79S  
#WALLA WALLA U N/A 60 53 78 CALM 29.91R  
#WHITMAN MISSIONN/A 56 52 86 CALM 29.92S  

 
 
WAZ030-270810-  
BLUE MOUNTAINS...WASHINGTON  
 
CITY SKY/WX TMP DP RH WIND PRES REMARKS
 
#DIXIE 5SE N/A 57 41 55 CALM 29.92R  

 
 
ORZ009-041-WAZ024-270810-  
COLUMBIA RIVER GORGE  
 
CITY SKY/WX TMP DP RH WIND PRES REMARKS
 
HOOD RIVER AP CLEAR 54 46 74 CALM 30.00R  
THE DALLES AP CLEAR 62 47 58 NW6 29.96R  
#ARLINGTON AIRPON/A 62 49 62 W8 29.81F  
#CELILO DOT N/A 65 47 52 SW6 N/A  
#MOSIER 1S N/A 60 38 44 SW6 29.97S  
#MURDOCK N/A 65 51 60 NW12 29.97R  
#RUFUS DOT N/A 64 47 54 N5 N/A  
 

 
 
ORZ510-270810-  
NORTH CENTRAL OREGON  
 
CITY SKY/WX TMP DP RH WIND PRES REMARKS
 
#CHENOWITH 1W N/A 55 45 69 W18 N/A  
#COW CYN RST AREN/A 54 35 48 CALM N/A  
#DUFUR 9E N/A 55 45 69 W3 30.00S  
#GRASS VALLEY 1SN/A 53 44 71 NW5 29.96R  
#KENT DOT N/A 51 39 63 N2 N/A  
#MAUPIN SCHOOL N/A 58 46 64 SW2 30.00R  
#MORO SCHOOL N/A 56 51 83 W8 29.99S  
#SHANIKO 5WSW N/A 52 36 54 N7 N/A  
#SHANIKO 4NW N/A 51 42 71 N6 30.02R  
#TYGH VALLEY 2NEN/A 55 45 69 CALM 29.96R  
#WAPANITIA AIRPON/A 54 45 71 NW2 29.96S  
#WASCO DOT N/A 53 45 74 CALM N/A  
#WASCO AIRPORT N/A 54 45 71 W5 N/A  
#WASCO 5NE N/A 55 47 74 W7 29.94R  

 
 
ORZ511-270810-  
CENTRAL OREGON  
 
CITY SKY/WX TMP DP RH WIND PRES REMARKS
 
BEND AIRPORT CLEAR 50 41 71 CALM 30.03R  
MADRAS AIRPORT CLEAR 54 43 66 N9 30.02S  
PRINEVILLE AP CLEAR 55 41 59 N5 30.00S  
REDMOND AIRPORT CLEAR 49 42 77 S3 30.01R  
#BEND 1SW N/A 48 43 83 CALM N/A  
#BEND-AWBREY N/A 51 44 77 CALM 29.94R  
#BEND-KIM LN N/A 52 44 74 CALM 30.00R  
#CROOKED RVR RANN/A 55 45 69 E5 29.94R  
#CULVER N/A 53 44 71 NW1 29.98R  
#LAKE BILLY CHINN/A 55 31 40 NE2 30.09R  
#POWELL BUTTE 3EN/A 53 41 64 W3 N/A  
#POWELL BUTTE N/A 52 40 63 W3 29.65R  
#PRINEVILLE 3N N/A 54 42 64 N3 29.91R  
#WARM SPRINGS N/A 59 45 60 SW10 29.96S  
 

 
 
 
ORZ509-270810-  
EAST SLOPES OF OREGON CASCADES  
 
CITY SKY/WX TMP DP RH WIND PRES REMARKS
 
#BLUE BOX PASS N/A 44 -7 11 CALM N/A  
#CAMP SHERMAN N/A 49 42 77 CALM 29.92R  
#LA PINE 4NW N/A 43 38 82 CALM 29.99R  
#SISTERS AIRPOR N/A 51 48 89 CALM 30.17S  
#SISTERS ODOT N/A 47 N/A N/A CALM N/A  
#SISTERS 1NW N/A 49 41 74 N6 N/A  
#SISTERS 3N N/A 49 38 66 CALM 30.01S  
#SUNRIVER N/A 47 41 79 CALM 29.84R  
#TUMALO 3W N/A 53 43 69 CALM 29.83R  
#WANOGA BUTTE D N/A 46 34 63 CALM N/A  
 

 
 
ORZ044-270810-  
LOWER COLUMBIA BASIN...OREGON  
 
CITY SKY/WX TMP DP RH WIND PRES REMARKS
 
HERMISTON CLEAR 58 51 77 CALM 29.94R  
#BOARDMAN SCHOOLN/A 58 53 83 CALM 29.95F  
#ECHO 8SW N/A 54 49 83 SW1 29.96R  
#IONE SCHOOL N/A 59 42 53 CALM 29.93R  
#IRRIGON 4NW N/A 57 54 90 S5 N/A  
#UMATILLA SCHOOLN/A 58 57 96 NW1 30.02F  
#UMATILLA N/A 61 50 67 CALM 29.86R  

 
 
ORZ507-270810-  
NORTHERN FOOTHILLS OF THE BLUES  
 
CITY SKY/WX TMP DP RH WIND PRES REMARKS
 
PENDLETON AIRPT MOCLDY 57 49 75 SE7 29.95R  
#ADAMS 3WNW N/A 53 49 86 NE1 29.91R  
#ATHENA N/A 54 49 83 CALM 29.93S  
#CAYUSE N/A 58 52 80 SE5 29.91R  
#HELIX SCHOOL N/A 57 49 75 CALM 29.91R  
#HELIX 3N N/A 57 49 75 CALM 29.93S  
#HOLDMAN 6E N/A 57 48 72 SW6 29.72S  
#M-F FERNDALE N/A 59 51 75 CALM 29.93R  
#M-F GROVE ELEM N/A 58 49 72 CALM 29.93R  
#M-FREEWATER 5SEN/A 57 49 75 CALM 29.94S  
#PENDLETON DNTN N/A 60 46 60 CALM 29.93S  
#PDT AQUATIC CTRN/A 59 44 57 CALM 29.95S  
#PENDLETON 5NE N/A 55 51 86 CALM 29.92R  
#PDT SUNRIDGE N/A 55 50 83 CALM 29.96R  
#PENDLETON 7NW N/A 57 48 72 CALM 29.88R  
#PILOT ROCK N/A 53 47 80 CALM 29.98R  
#TUTUILLA N/A 53 49 86 CALM 29.94R  
#UMAPINE 2E N/A 56 53 90 CALM 29.90R  
#WESTON SCHOOL N/A 55 46 72 CALM 29.92R  
 

 
 
ORZ508-270810-  
SOUTHERN FOOTHILLS OF THE BLUES  
 
CITY SKY/WX TMP DP RH WIND PRES REMARKS
 
#AJAX N/A 55 40 57 CALM 29.93R  
#CONDON 5W N/A 51 43 74 NW7 29.98S  
#FOSSIL SCHOOL N/A 52 45 77 CALM 29.97R  
#HEPPNER EOC N/A 57 49 75 CALM 29.86R  
#HEPPNER 4NE N/A 53 47 80 CALM 29.93R  
#LEXINGTON 2SE N/A 56 49 77 CALM 29.93R  
#RUGGS 5NE N/A 53 45 74 CALM 30.14S  
#RUGGS 2SW N/A 52 46 80 S6 29.95R  
 

 
 
ORZ502-503-270810-  
BLUE MOUNTAINS  
 
CITY SKY/WX TMP DP RH WIND PRES REMARKS
 
MEACHAM PTCLDY 45 42 89 CALM 30.01S  
#BATTLE MTN DOT N/A 49 49 100 CALM N/A  
#HEPPNER 15SE N/A 46 42 86 CALM 29.92S  
#LADD CYN SMT N/A 49 41 74 CALM N/A  
#LONG CREEK HS N/A 51 49 93 CALM 29.96R  
#N POWDER DOT N/A 50 46 86 NW3 N/A  
#PIKES PEAK N/A 55 42 61 VRB1 27.99S  
#TOLLGATE N/A 44 40 86 CALM 29.96S  
#TROY SCHOOL N/A 52 47 83 CALM 29.80R  
#UKIAH N/A 48 45 89 CALM 29.98S  
#WESTON 4E N/A 56 46 69 CALM 29.87R  

 
 
ORZ505-270810-  
JOHN DAY BASIN  
 
CITY SKY/WX TMP DP RH WIND PRES REMARKS
 
JOHN DAY PTCLDY 56 45 66 CALM 30.01R  
#JOHN DAY KJDY N/A 56 53 90 CALM 30.01R  
#DAYVILLE SCHOOLN/A 61 42 50 CALM 29.95R  
#MITCHELL N/A 53 47 80 CALM 30.14R  
#MONUMENT HS N/A 58 44 60 CALM 29.98R  
#MT. VERNON 5SE N/A 52 45 77 CALM 29.96S  

 
 
ORZ506-270810-  
OCHOCO AND JOHN DAY HIGHLANDS  
 
CITY SKY/WX TMP DP RH WIND PRES REMARKS
 
#BUCK CREEK DOT N/A 54 54 100 NW1 N/A  
#PAULINA SCHOOL N/A 53 40 61 CALM 29.97R  
#PINE MTN OBS N/A 43 39 86 NW5 N/A  
#PRAIRIE CITY N/A 51 46 83 CALM 30.00R  
#SENECA N/A 51 N/A N/A CALM N/A  
#SENECA 9NW N/A 47 41 79 CALM 29.91R  

 
 
ORZ049-270810-  
GRANDE RONDE VALLEY  
 
CITY SKY/WX TMP DP RH WIND PRES REMARKS
 
LA GRANDE CLEAR 54 37 52 CALM 29.97R  
#COVE N/A 49 46 89 CALM 29.98S  
#COVE SCHOOL N/A 49 45 86 CALM 29.96R  
#ELGIN 3N N/A 49 43 80 CALM 29.97R  
#ELGIN 1E N/A 51 44 77 CALM N/A  
#ISLAND CITY 4N N/A 53 50 89 CALM 30.00S  
#LADD CYN DOT N/A 53 45 74 SE12 N/A  
#LA GRANDE ELEM N/A 54 46 74 CALM 30.00S  
#UNION 1S N/A 53 46 77 CALM 29.83S  

 
 
ORZ050-270810-  
WALLOWA COUNTY  
 
CITY SKY/WX TMP DP RH WIND PRES REMARKS
 
JOSEPH AIRPORT N/A 46 43 89 CALM 30.03R  
#ENTERPRISE HS N/A 47 44 89 CALM 30.02R  
#IMNAHA SCHOOL N/A 56 50 80 SW2 29.98R  
#IMNAHA 10S N/A 52 47 83 SW2 29.99R  
#JOSEPH 3N N/A 44 38 79 CALM 30.03R  
#JOSEPH 3W N/A 45 41 86 CALM 29.87R  
#LOSTINE N/A 50 46 86 CALM 29.75R  
#MT HOWARD 8000 N/A 37 35 92 CALM 30.09S  
#PROMISE 1S N/A 46 44 93 CALM 30.05R  
#SHEEP RDG 7000 N/A 41 37 86 CALM 29.98R  
#WALLOWA SCHOOL N/A 48 46 93 CALM 30.86R  
 

 
 
CLICK HERE TO GO TO PREVIOUS BULLETINS.

The Nexlab OR Page
The Nexlab WA Page Main Text Page